Location: 相模原市立博物館
(35.5593°N, 139.3931°E)
Time: 13:11:57
(UTC+09:00)

NUDT-PHONESAT - Visible Passes

Search period start: 25 January 2022 00:00
Search period end: 04 February 2022 00:00
Orbit: 469 x 486 km, 97.4° (Epoch: 24 January)

Date Brightness Start Highest point End Pass type
(mag) Time Alt. Az. Time Alt. Az. Time Alt. Az.
25 Jan ? 05:33:47 10° ENE 05:35:01 11° E 05:36:14 10° ESE visible
25 Jan ? 17:36:48 10° SSE 17:40:13 51° ENE 17:43:38 10° N visible
26 Jan ? 18:44:49 10° SW 18:47:06 16° W 18:49:24 10° NW visible
27 Jan ? 06:12:10 10° NNE 06:15:32 40° E 06:18:52 10° S visible
27 Jan ? 18:17:13 10° SSW 18:20:30 37° W 18:23:47 10° NNW visible
28 Jan ? 05:46:29 10° NE 05:48:56 17° E 05:51:22 10° SE visible
28 Jan ? 17:50:28 10° SSE 17:53:58 85° ENE 17:57:29 10° N visible
29 Jan ? 19:00:06 10° WSW 19:00:55 11° W 19:01:44 10° W visible
30 Jan ? 18:31:19 10° SSW 18:34:13 24° W 18:37:07 10° NW visible
31 Jan ? 05:59:36 10° NE 06:02:38 26° E 06:05:40 10° SSE visible
31 Jan ? 18:04:08 10° S 18:07:34 59° W 18:11:03 10° NNW visible
01 Feb ? 05:34:33 10° ENE 05:35:55 12° E 05:37:16 10° ESE visible
01 Feb ? 17:37:37 10° SSE 17:41:01 52° ENE 17:44:26 10° N visible
02 Feb ? 18:45:31 10° SW 18:47:46 16° W 18:50:01 10° NW visible
03 Feb ? 18:17:46 10° SSW 18:21:01 37° W 18:24:18 10° NNW visible
